Regional Weather Roundup
Issued by NWS Northern Indiana

Home | Current Version | Previous Version | Text Only | Print | Product List | Glossary On
Versions: 1 2 3 4 5 6 7 8 9 10 11 12 13 14 15 16 17 18 19 20 21 22 23 24 25 26 27 28 29 30 31 32 33 34 35 36 37 38 39 40 41 42 43 44 45 46 47 48 49 50
269
ASUS43 KIWX 151310
RWRIWX

KIWX WEATHER ROUNDUP
NATIONAL WEATHER SERVICE NORTHERN INDIANA
800 AM EST FRI NOV 15 2019

NOTE: "FAIR" INDICATES FEW OR NO CLOUDS BELOW 12,000 FEET WITH NO
SIGNIFICANT WEATHER AND/OR OBSTRUCTIONS TO VISIBILITY.

* THESE STATIONS ARE NOT UNDER NWS QUALITY CONTROL. THEY ALSO MAY NOT
  REPORT WEATHER SUCH AS PRECIPITATION OR FOG.

INZ001>027-151400-
NORTHERN INDIANA

CITY           SKY/WX    TMP DP  RH WIND       PRES   REMARKS
GARY*          CLEAR     23  18  80 MISG      30.35R
VALPARAISO     FAIR      22  16  78 SW9       30.34R WCI  12
MICHIGAN CITY* FAIR      21  21 100 SW5       30.34R FOG     WCI  15
LAPORTE*       MOCLDY    19  16  89 SW7       30.33R FOG     WCI  10
KNOX*          FAIR      19  18  93 SW5       30.34R WCI  13
SOUTH BEND     FAIR      21  17  84 SW8       30.32R FOG     WCI  11
ELKHART*       FAIR      21  18  86 SW5       30.31R FOG     WCI  15
GOSHEN         FAIR      19  15  84 SW7       30.31S FOG     WCI  10
MONTICELLO*    FAIR      19  15  86 SW3       30.36S
LOGANSPORT*    FAIR      21  19  93 SW6       30.36S WCI  14
ROCHESTER*     FAIR      25  19  80 SW7       30.34S WCI  17
WARSAW*        FAIR      23  18  80 SW6       30.32S HAZE    WCI  16
KENDALLVILLE*  FAIR      22  17  81 SW7       30.30S HAZE    WCI  13
AUBURN*        FAIR      23  19  86 SW3       30.32S FOG
FORT WAYNE     FAIR      22  18  85 SW5       30.34R WCI  16
HUNTINGTON*    FAIR      23  19  85 SW3       30.34R
PERU/GRISSOM   FAIR      20  20  99 W6        30.35R WCI  12

$$
INZ028>050-151400-
CENTRAL INDIANA

CITY           SKY/WX    TMP DP  RH WIND       PRES   REMARKS
LAFAYETTE      FAIR      22  20  92 SW3       30.38R FOG
KOKOMO*        FAIR      21  19  92 W6        30.37R WCI  13
MUNCIE*        FAIR      25  19  78 W3        30.34S HAZE
INDIANAPOLIS   FAIR      26  21  81 NW5       30.36R WCI  20

$$
MIZ043>046-050>051-056>058-064>065-071>073-077>080-151400-
SOUTHWEST LOWER MICHIGAN

CITY           SKY/WX    TMP DP  RH WIND       PRES   REMARKS
BATTLE CREEK   MOCLDY    28  24  85 SW12      30.27R FOG     WCI  18
BENTON HARBOR  CLOUDY    34  28  79 W12       30.30R WCI  25
COLDWATER*     CLOUDY    26  19  74 SW8       30.29R HAZE    WCI  17
HILLSDALE*     CLOUDY    25  21  85 SW7       30.26S FOG     WCI  17
HOLLAND        CLOUDY    35  30  82 W7        30.26R WCI  29
GRAND RAPIDS   CLOUDY    32  26  78 SW9       30.24R WCI  24
KALAMAZOO      MOCLDY    25  20  81 SW10      30.28R FOG     WCI  15
STURGIS*       FAIR      20  16  83 SW6       30.30R FOG     WCI  13
THREE RIVERS*  FAIR      24  19  82 SW5       30.30S FOG     WCI  18

$$
OHZ001>008-015>018-024>025-151400-
NORTHWEST OHIO

CITY           SKY/WX    TMP DP  RH WIND       PRES   REMARKS
WAUSEON*       FAIR      25  25 100 W7        30.31R FOG     WCI  17
DEFIANCE       FAIR      25  19  78 SW5       30.33R WCI  19
FINDLAY        MOCLDY    28  22  78 W12       30.32R WCI  18
TOLEDO EXPRESS FAIR      28  19  69 W12       30.31R HAZE    WCI  18
LIMA           FAIR      26  21  81 W7        30.32S WCI  18

$$
AND FOR LAKE MICHIGAN COASTAL AND OPEN LAKE BUOY OBSERVATIONS

STATION/POSITION TEMP    WIND        PRES    VSBY  WAVE
                 AIR SEA DIR/SP/G                  HT/PER
                 (F)     (DEG/KT/KT) (MB)    (MI)  (FT/S)
CALUMET HARBOR    23     220/  5/  7 1026.4R
MICHIGAN CITY     24     210/ 11/ 13   N/A
SAINT JOSEPH      35     280/ 10/ 15 1026.1
SOUTH LAKE BUOY      44  250/ 14/ 17   N/A           3/ 5

$$
&&




USA.gov is the U.S. government's official web portal to all federal, state and local government web resources and services.